Flag for Canada Weather past 2 weeks in Resolute Bay, Nunavut Territory, Canada

Now
36 °F

Partly sunny.


Feels Like: 27 °F
Forecast: 30 / 39 °F
Wind: 13 mph from Southeast

Location: Resolute

Current Time: Sep 2, 2014 at 7:20:05 AM

Latest Report: Sep 2, 2014 at 6:00 AM


Visibility: 15 mi

Pressure: 29.82 "Hg

Humidity: 87%

Dew point: 32 °F

Location of Resolute BayLocation

Historic Weather in Resolute Bay — Graph

°F

Resolute Bay temperature yesterday

Maximum temperature yesterday: 41 °F (at 3:00 PM)
Minimum temperature yesterday: 32 °F (at 3:00 AM)
Average temperature yesterday: 36 °F

Past Weeks' High & Low Weather Summary

 TemperatureHumidityPressure
High48 °F (Aug 30, 3:00 PM)100% (Aug 18, 6:00 AM)30.25 "Hg (Aug 18, 6:00 AM)
Low28 °F (Aug 18, 6:00 AM)62% (Aug 30, 6:00 PM)29.54 "Hg (Aug 19, 11:00 PM)
Average35 °F92%29.90 "Hg
* Reported Aug 18 6:00 AM — Sep 2 6:00 AM, Resolute Bay, Weather by CustomWeather, © 2014

Note: Actual official high and low records may vary slightly from our data, if they occured in-between our weather recording intervals... More about our weather records

Advertising

Resolute Bay weather history for previous 24 hours

 ConditionsComfort  
Time TempWeatherWind HumidityBarometerVisibility
6:00 AM
Sep 2
36 °FPartly sunny.13 mph87%29.82 "Hg15 mi
5:00 AM34 °FPassing clouds.10 mph93%29.82 "Hg15 mi
4:00 AM34 °FPassing clouds.9 mph93%29.82 "Hg15 mi
3:00 AM36 °FPassing clouds.8 mph87%29.82 "Hg15 mi
2:00 AM36 °FPassing clouds.6 mph87%29.82 "Hg15 mi
1:00 AM36 °FPassing clouds.6 mph87%29.82 "Hg15 mi
12:00 AM36 °FPassing clouds.5 mph87%29.82 "Hg15 mi
11:00 PM
Sep 1
36 °FPassing clouds.6 mph93%29.83 "Hg15 mi
10:00 PM37 °FPassing clouds.3 mph87%29.83 "Hg15 mi
9:00 PM37 °FPassing clouds.3 mph87%29.84 "Hg15 mi
8:00 PM37 °FPassing clouds.5 mph93%29.83 "Hg15 mi
7:00 PM39 °FPassing clouds.6 mph87%29.83 "Hg15 mi
6:00 PM37 °FPassing clouds.9 mph87%29.83 "Hg15 mi
5:00 PM39 °FPassing clouds.9 mph87%29.84 "Hg15 mi
4:00 PM41 °FPassing clouds.9 mph81%29.83 "Hg15 mi
3:00 PM41 °FSunny.9 mph81%29.83 "Hg15 mi
2:00 PM39 °FSunny.9 mph87%29.82 "Hg15 mi
1:00 PM39 °FSunny.9 mph87%29.82 "Hg15 mi
12:00 PM37 °FPassing clouds.7 mph87%29.83 "Hg15 mi
11:00 AM36 °FSunny.7 mph93%29.83 "Hg15 mi
10:00 AM36 °FSunny.8 mph87%29.84 "Hg15 mi
9:00 AM36 °FPassing clouds.8 mph81%29.84 "Hg15 mi
8:00 AM34 °FPassing clouds.8 mph87%29.85 "Hg15 mi
7:00 AM34 °FPassing clouds.8 mph87%29.84 "Hg15 mi
Weather by CustomWeather, © 2014

See weather overviewHow to use our weather pages